Radiation Dose at Monitoring Post of Fukushima Daini Nuclear Power Station
Date,Time,MP-1(microSv/h),MP-2(microSv/h),MP-3(microSv/h),MP-4(microSv/h),MP-5(microSv/h),MP-6(microSv/h),MP-7(microSv/h),Wind Direction,Wind Velocity(m/s),Rain
2014/03/19,00:00,0.8,0.5,0.8,0.7,0.7,0.3,0.3,west-northwest,5.9,No
2014/03/19,00:10,0.8,0.5,0.8,0.7,0.7,0.3,0.3,northwest,3.5,No
2014/03/19,00:20,0.8,0.5,0.8,0.7,0.7,0.3,0.3,west-northwest,5.6,No
2014/03/19,00:30,0.8,0.5,0.8,0.7,0.7,0.3,0.3,northwest,3.6,No
2014/03/19,00:40,0.8,0.5,0.8,0.7,0.7,0.3,0.3,northwest,3.4,No
2014/03/19,00:50,0.8,0.5,0.8,0.7,0.7,0.3,0.3,north-northwest,2.5,No
2014/03/19,01:00,0.8,0.5,0.8,0.7,0.7,0.3,0.3,north,3.3,No
2014/03/19,01:10,0.8,0.5,0.8,0.7,0.7,0.3,0.3,northwest,6.7,No
2014/03/19,01:20,0.8,0.5,0.8,0.7,0.7,0.3,0.3,northwest,6.7,No
2014/03/19,01:30,0.8,0.5,0.8,0.7,0.7,0.3,0.3,northwest,4.2,No
2014/03/19,01:40,0.8,0.5,0.8,0.7,0.7,0.3,0.3,northwest,3.8,No
2014/03/19,01:50,0.8,0.5,0.8,0.7,0.7,0.3,0.3,north-northwest,3.4,No
2014/03/19,02:00,0.8,0.5,0.8,0.7,0.7,0.3,0.3,northwest,1.7,No
2014/03/19,02:10,0.8,0.5,0.8,0.7,0.7,0.3,0.3,northwest,2.8,No
2014/03/19,02:20,0.8,0.5,0.8,0.7,0.7,0.3,0.3,west-northwest,4.3,No
2014/03/19,02:30,0.8,0.5,0.8,0.7,0.7,0.3,0.3,west-northwest,3.3,No
2014/03/19,02:40,0.8,0.5,0.8,0.7,0.7,0.3,0.3,north-northwest,1.7,No
2014/03/19,02:50,0.8,0.5,0.8,0.7,0.7,0.3,0.3,west-northwest,1.1,No
2014/03/19,03:00,0.8,0.5,0.8,0.7,0.7,0.3,0.3,north-northwest,0.9,No
2014/03/19,03:10,0.8,0.5,0.8,0.7,0.7,0.3,0.3,northwest,2.0,No
2014/03/19,03:20,0.8,0.5,0.8,0.7,0.7,0.3,0.3,northwest,3.1,No
2014/03/19,03:30,0.8,0.5,0.8,0.7,0.7,0.3,0.3,northwest,3.1,No
2014/03/19,03:40,0.8,0.5,0.8,0.7,0.7,0.3,0.3,west-northwest,2.8,No
2014/03/19,03:50,0.8,0.5,0.8,0.7,0.7,0.3,0.3,northwest,3.3,No
2014/03/19,04:00,0.8,0.5,0.8,0.7,0.7,0.3,0.3,northwest,2.5,No
2014/03/19,04:10,0.8,0.5,0.8,0.7,0.7,0.3,0.3,west-northwest,2.2,No
2014/03/19,04:20,0.8,0.5,0.8,0.7,0.7,0.3,0.3,west-northwest,2.9,No
2014/03/19,04:30,0.8,0.5,0.8,0.7,0.7,0.3,0.3,northwest,2.0,No
2014/03/19,04:40,0.8,0.5,0.8,0.7,0.7,0.3,0.3,west-northwest,2.7,No
2014/03/19,04:50,0.8,0.5,0.8,0.7,0.7,0.3,0.3,west-northwest,3.9,No
2014/03/19,05:00,0.8,0.5,0.8,0.7,0.7,0.3,0.3,west-northwest,4.0,No
2014/03/19,05:10,0.8,0.5,0.8,0.7,0.7,0.3,0.3,west-northwest,3.6,No
2014/03/19,05:20,0.8,0.5,0.8,0.7,0.7,0.3,0.3,west-northwest,3.3,No
2014/03/19,05:30,0.8,0.5,0.8,0.7,0.7,0.3,0.3,northwest,2.1,No
2014/03/19,05:40,0.8,0.5,0.8,0.7,0.7,0.3,0.3,north-northwest,1.3,No
2014/03/19,05:50,0.8,0.5,0.8,0.7,0.7,0.3,0.3,north-northwest,2.6,No
2014/03/19,06:00,0.8,0.5,0.8,0.7,0.7,0.3,0.3,north-northwest,5.0,No
2014/03/19,06:10,0.8,0.5,0.8,0.7,0.7,0.3,0.3,north-northwest,5.0,No
2014/03/19,06:20,0.8,0.5,0.8,0.7,0.7,0.3,0.3,north-northwest,4.4,No
2014/03/19,06:30,0.8,0.5,0.8,0.7,0.7,0.3,0.3,north-northwest,4.8,No
2014/03/19,06:40,0.8,0.5,0.8,0.7,0.7,0.3,0.3,north-northwest,5.5,No
2014/03/19,06:50,0.8,0.5,0.8,0.7,0.7,0.3,0.3,north,5.3,No
2014/03/19,07:00,0.8,0.5,0.8,0.7,0.7,0.3,0.3,north,5.0,No
2014/03/19,07:10,0.8,0.5,0.8,0.7,0.7,0.3,0.3,north,4.8,No
2014/03/19,07:20,0.8,0.5,0.8,0.7,0.7,0.3,0.3,north-northwest,2.5,No
2014/03/19,07:30,0.8,0.5,0.8,0.7,0.7,0.3,0.3,north-northwest,4.3,No
2014/03/19,07:40,0.8,0.5,0.8,0.7,0.7,0.3,0.3,north,4.6,No
2014/03/19,07:50,0.8,0.5,0.8,0.7,0.7,0.3,0.3,north,4.6,No
2014/03/19,08:00,0.8,0.5,0.8,0.7,0.7,0.3,0.3,north,6.8,No
2014/03/19,08:10,0.8,0.5,0.8,0.7,0.7,0.3,0.3,north,4.8,No
2014/03/19,08:20,0.8,0.5,0.8,0.7,0.7,0.3,0.3,north,4.0,No
2014/03/19,08:30,0.8,0.5,0.8,0.7,0.7,0.3,0.3,north,4.7,No
2014/03/19,08:40,0.8,0.5,0.8,0.7,0.7,0.3,0.3,north,4.9,No
2014/03/19,08:50,0.8,0.5,0.8,0.7,0.7,0.3,0.3,north,6.9,No
2014/03/19,09:00,0.8,0.5,0.8,0.7,0.7,0.3,0.3,north,7.4,No
2014/03/19,09:10,0.8,0.5,0.8,0.7,0.7,0.3,0.3,north,5.6,No
2014/03/19,09:20,0.8,0.5,0.8,0.7,0.7,0.3,0.3,north-northeast,6.7,No
2014/03/19,09:30,0.8,0.5,0.8,0.7,0.7,0.3,0.3,north-northeast,9.1,No
2014/03/19,09:40,0.8,0.5,0.8,0.7,0.7,0.3,0.3,north-northeast,8.3,No
2014/03/19,09:50,0.8,0.5,0.8,0.7,0.7,0.3,0.3,north-northeast,9.6,No
2014/03/19,10:00,0.8,0.5,0.8,0.7,0.7,0.3,0.3,north-northeast,8.7,No
2014/03/19,10:10,0.8,0.5,0.8,0.7,0.7,0.3,0.3,north,9.7,No
2014/03/19,10:20,0.8,0.5,0.8,0.7,0.7,0.3,0.3,north-northeast,11.6,No
2014/03/19,10:30,0.8,0.5,0.8,0.7,0.7,0.3,0.3,north-northeast,10.4,No
2014/03/19,10:40,0.8,0.5,0.8,0.7,0.7,0.3,0.3,north-northeast,8.7,No
2014/03/19,10:50,0.8,0.5,0.8,0.7,0.7,0.3,0.3,north-northeast,9.7,No
2014/03/19,11:00,0.8,0.5,0.8,0.7,0.7,0.3,0.3,north-northeast,10.5,No
2014/03/19,11:10,0.8,0.5,0.8,0.7,0.7,0.3,0.3,north-northeast,10.1,No
2014/03/19,11:20,0.8,0.5,0.8,0.7,0.7,0.3,0.3,north-northeast,11.8,No
2014/03/19,11:30,0.8,0.5,0.8,0.7,0.7,0.3,0.3,north-northeast,9.2,No
2014/03/19,11:40,0.8,0.5,0.8,0.7,0.7,0.3,0.3,north-northeast,8.4,No
2014/03/19,11:50,0.8,0.5,0.8,0.7,0.7,0.3,0.3,north-northeast,7.9,No
2014/03/19,12:00,0.8,0.5,0.8,0.7,0.7,0.3,0.3,north-northeast,10.6,No
2014/03/19,12:10,0.8,0.5,0.8,0.7,0.7,0.3,0.3,north-northeast,7.5,No
2014/03/19,12:20,0.8,0.5,0.8,0.7,0.7,0.3,0.3,north-northeast,8.1,No
2014/03/19,12:30,0.8,0.5,0.8,0.7,0.7,0.3,0.3,north-northeast,8.1,No
2014/03/19,12:40,0.8,0.5,0.8,0.7,0.7,0.3,0.3,north-northeast,7.3,No
2014/03/19,12:50,0.8,0.5,0.8,0.7,0.7,0.3,0.3,northeast,7.9,No
2014/03/19,13:00,0.8,0.5,0.8,0.7,0.7,0.3,0.3,north-northeast,6.4,No
2014/03/19,13:10,0.8,0.5,0.8,0.7,0.7,0.3,0.3,north-northeast,7.4,No
2014/03/19,13:20,0.8,0.5,0.8,0.7,0.7,0.3,0.3,north-northeast,5.8,No
2014/03/19,13:30,0.8,0.5,0.8,0.7,0.7,0.3,0.3,north-northeast,7.3,No
2014/03/19,13:40,0.8,0.5,0.8,0.7,0.7,0.3,0.3,north-northeast,5.6,No
2014/03/19,13:50,0.8,0.5,0.8,0.7,0.7,0.3,0.3,northeast,5.1,No
2014/03/19,14:00,0.8,0.5,0.8,0.7,0.7,0.3,0.3,northeast,6.2,No
2014/03/19,14:10,0.8,0.5,0.8,0.7,0.7,0.3,0.3,north-northeast,5.1,No
2014/03/19,14:20,0.8,0.5,0.8,0.7,0.7,0.3,0.3,north-northeast,4.9,No
2014/03/19,14:30,0.8,0.5,0.8,0.7,0.7,0.3,0.3,north-northeast,4.1,No
2014/03/19,14:40,0.8,0.5,0.8,0.7,0.7,0.3,0.3,northeast,6.2,No
2014/03/19,14:50,0.8,0.5,0.8,0.7,0.7,0.3,0.3,north-northeast,7.0,No
2014/03/19,15:00,0.8,0.5,0.8,0.7,0.7,0.3,0.3,north-northeast,5.9,No
2014/03/19,15:10,0.8,0.5,0.8,0.7,0.7,0.3,0.3,north-northeast,5.3,No
2014/03/19,15:20,0.8,0.5,0.8,0.7,0.7,0.3,0.3,north-northeast,5.5,No
2014/03/19,15:30,0.8,0.5,0.8,0.7,0.7,0.3,0.3,north-northeast,5.4,No
2014/03/19,15:40,0.8,0.5,0.8,0.7,0.7,0.3,0.3,north,5.9,No
2014/03/19,15:50,0.8,0.5,0.8,0.7,0.7,0.3,0.3,north,4.5,No
2014/03/19,16:00,0.8,0.5,0.8,0.7,0.7,0.3,0.3,north-northeast,3.8,No
2014/03/19,16:10,0.8,0.5,0.8,0.7,0.7,0.3,0.3,north-northeast,3.7,No
2014/03/19,16:20,0.8,0.5,0.8,0.7,0.7,0.3,0.3,north-northeast,2.5,No
2014/03/19,16:30,0.8,0.5,0.8,0.7,0.7,0.3,0.3,northeast,2.9,No
2014/03/19,16:40,0.8,0.5,0.8,0.7,0.7,0.3,0.3,northeast,2.8,No
2014/03/19,16:50,0.8,0.5,0.8,0.7,0.7,0.3,0.3,north-northeast,3.1,No
2014/03/19,17:00,0.8,0.5,0.8,0.7,0.7,0.3,0.3,east,3.2,No
2014/03/19,17:10,0.8,0.5,0.8,0.7,0.7,0.3,0.3,east-southeast,4.2,No
2014/03/19,17:20,0.8,0.5,0.8,0.7,0.7,0.3,0.3,east,5.4,No
2014/03/19,17:30,0.8,0.5,0.8,0.7,0.7,0.3,0.3,east-southeast,3.6,No
2014/03/19,17:40,0.8,0.5,0.8,0.7,0.7,0.3,0.3,southeast,2.8,No
2014/03/19,17:50,0.8,0.5,0.8,0.7,0.7,0.3,0.3,south-southeast,1.1,No
2014/03/19,18:00,0.8,0.5,0.8,0.7,0.7,0.3,0.3,south-southeast,1.6,No
2014/03/19,18:10,0.8,0.5,0.8,0.7,0.7,0.3,0.3,south,1.7,No
2014/03/19,18:20,0.8,0.5,0.8,0.7,0.7,0.3,0.3,south-southeast,2.8,No
2014/03/19,18:30,0.8,0.5,0.8,0.7,0.7,0.3,0.3,south-southeast,1.6,No
2014/03/19,18:40,0.8,0.5,0.8,0.7,0.7,0.3,0.3,south-southeast,2.7,No
2014/03/19,18:50,0.8,0.5,0.8,0.7,0.7,0.3,0.3,south-southeast,3.2,No
2014/03/19,19:00,0.8,0.5,0.8,0.7,0.7,0.3,0.3,south-southeast,2.5,No
2014/03/19,19:10,0.8,0.5,0.8,0.7,0.7,0.3,0.3,south-southeast,3.2,No
2014/03/19,19:20,0.8,0.5,0.8,0.7,0.7,0.3,0.3,south-southeast,3.6,No
2014/03/19,19:30,0.8,0.5,0.8,0.7,0.7,0.3,0.3,south-southeast,4.3,No
2014/03/19,19:40,0.8,0.5,0.8,0.7,0.7,0.3,0.3,south-southeast,3.4,No
2014/03/19,19:50,0.8,0.5,0.8,0.7,0.7,0.3,0.3,south-southeast,4.1,No
2014/03/19,20:00,0.8,0.5,0.8,0.7,0.7,0.3,0.3,south-southeast,1.9,No
2014/03/19,20:10,0.8,0.5,0.8,0.7,0.7,0.3,0.3,south-southeast,2.8,No
2014/03/19,20:20,0.8,0.5,0.8,0.7,0.7,0.3,0.3,south-southeast,2.3,No
2014/03/19,20:30,0.8,0.5,0.8,0.7,0.7,0.3,0.3,south-southeast,2.4,No
2014/03/19,20:40,0.8,0.5,0.8,0.7,0.7,0.3,0.3,south-southeast,2.6,No
2014/03/19,20:50,0.8,0.5,0.8,0.7,0.7,0.3,0.3,south-southeast,3.1,No
2014/03/19,21:00,0.8,0.5,0.8,0.7,0.7,0.3,0.3,south-southeast,2.8,No
2014/03/19,21:10,0.8,0.5,0.8,0.7,0.7,0.3,0.3,south-southeast,1.9,No
2014/03/19,21:20,0.8,0.5,0.8,0.7,0.7,0.3,0.3,south-southeast,1.9,No
2014/03/19,21:30,0.8,0.5,0.8,0.7,0.7,0.3,0.3,south-southeast,2.6,No
2014/03/19,21:40,0.8,0.5,0.8,0.7,0.7,0.3,0.3,south-southeast,2.3,No
2014/03/19,21:50,0.8,0.5,0.8,0.7,0.7,0.3,0.3,south-southwest,1.4,No
2014/03/19,22:00,0.8,0.5,0.8,0.7,0.7,0.3,0.3,south,1.8,No
2014/03/19,22:10,0.8,0.5,0.8,0.7,0.7,0.3,0.3,south,2.3,No
2014/03/19,22:20,0.8,0.5,0.8,0.7,0.7,0.3,0.3,south-southeast,1.7,No
2014/03/19,22:30,0.8,0.5,0.8,0.7,0.7,0.3,0.3,south-southeast,4.2,No
2014/03/19,22:40,0.8,0.5,0.8,0.7,0.7,0.3,0.3,south-southeast,4.0,No
2014/03/19,22:50,0.8,0.5,0.8,0.7,0.7,0.3,0.3,south,3.3,No
2014/03/19,23:00,0.8,0.5,0.8,0.7,0.7,0.3,0.3,south-southwest,4.3,No
2014/03/19,23:10,0.8,0.5,0.8,0.7,0.7,0.3,0.3,south,3.5,No
2014/03/19,23:20,0.8,0.5,0.8,0.7,0.7,0.3,0.3,south,4.2,No
2014/03/19,23:30,0.8,0.5,0.8,0.7,0.7,0.3,0.3,south,4.7,No
2014/03/19,23:40,0.8,0.5,0.8,0.7,0.7,0.3,0.3,south-southwest,4.1,No
2014/03/19,23:50,0.8,0.5,0.8,0.7,0.7,0.3,0.3,south-southwest,3.9,No
